sat.trackr.live / text

‹ back to catalog

STARLINK-30077

NORAD 57460 · 2023-107D

PAYLOAD ACTIVE UNKNOWN

§ Identity

Operator
Country
US
Launch date
2023-07-28
Launch site
AFETR
Launch vehicle
Mass (kg)
RCS (m²)

Purposes: comms

External: N2YO · Heavens-Above · Gunter

§ Orbital elements

Epoch: 2026-05-24T17:58:53.176512Z

Period
94.27 min
Inclination
43.0025°
Eccentricity
0.0001328
Mean motion
15.27579632 rev/d
Perigee alt
482.1 km
Apogee alt
484.0 km
Semi-major
6,861.2 km
B*
4.1162e-5
RAAN
266.2051°
Arg perigee
275.2807°
Mean anomaly
84.7893°
Rev number
15,678

§ Raw data

STARLINK-300771 57460U 23107D   26144.74922658  .00000871  00000+0  41162-4 0  99982 57460  43.0025 266.2051 0001328 275.2807  84.7893 15.27579632156788

JSON: /api/v1/satellites/57460 · /tle

For live sub-satellite position, see the globe view (requires WebGL).

§ Visibility from observer

Set your observer location to see the next 7 days of passes ≥ 10°. The values pass through the URL so the page stays shareable.

No JS? Fill the form by hand. The geolocation button needs JavaScript.